Plainview, TX

3:49 PM CDT on September 20, 2017 (GMT -0500)
Hale County

Weather History for KPVW - January, 2012

Change the Weather History Date:

Friday, January 27, 2012

  Actual Average Record
Temperature  
Mean Temperature 50 °F -  
Max Temperature 60 °F 53 °F 78 °F (1975)
Min Temperature 39 °F 26 °F 3 °F (1963)
Degree Days  
Heating Degree Days 16    
Moisture  
Dew Point 28 °F    
Average Humidity 48    
Maximum Humidity 65    
Minimum Humidity 27    
Precipitation  
Precipitation 0.00 in - - ()
Sea Level Pressure  
Sea Level Pressure 29.92 in    
Wind  
Wind Speed 15 mph (NW)    
Max Wind Speed 26 mph    
Max Gust Speed 34 mph    
Visibility 10 miles    
Events      
Averages and records for this station are not official NWS values.
T = Trace of Precipitation, MM = Missing Value Source: NWS Daily Summary

Daily Weather History Graph

Daily Weather History Graph

Search for Another Location

Airport or City:

Trip Planner

Search our weather history database for the weather conditions in past years. The results will help you decide how hot, cold, wet, or windy it might be!

Date:

Astronomy

Jan. 27, 2012 Rise Set
Actual Time 7:47 AM CST 6:11 PM CST
Civil Twilight 7:21 AM CST 6:38 PM CST
Nautical Twilight 6:50 AM CST 7:08 PM CST
Astronomical Twilight 6:21 AM CST 7:38 PM CST
Moon 9:58 AM CST (1/27) 10:48 PM CST (1/27)
Length of Visible Light 11h 17m
Length of Day
10h 24m
Waxing Crescent, 20% of the Moon is Illuminated
Jan 27
Waxing Crescent
Jan 30
First Quarter
Feb 7
Full
Feb 14
Last Quarter
Feb 21
New

Hourly Weather History & Observations

Time (CST) Temp. Windchill Dew Point Humidity Pressure Visibility Wind Dir Wind Speed Gust Speed Precip Events Conditions
12:35 AM 41.0 °F 33.5 °F 26.6 °F 57% 29.93 in 10.0 mi SSW 13.8 mph 20.7 mph N/A   Clear
12:55 AM 41.0 °F 34.3 °F 28.4 °F 61% 29.92 in 10.0 mi South 11.5 mph - N/A   Clear
1:35 AM 39.2 °F 33.6 °F 28.4 °F 65% 29.90 in 10.0 mi SSW 8.1 mph - N/A   Clear
1:55 AM 39.2 °F 33.0 °F 28.4 °F 65% 29.89 in 10.0 mi SSW 9.2 mph - N/A   Clear
2:15 AM 41.0 °F 34.3 °F 26.6 °F 57% 29.89 in 10.0 mi SW 11.5 mph - N/A   Clear
2:35 AM 41.0 °F 33.9 °F 26.6 °F 57% 29.88 in 10.0 mi SW 12.7 mph - N/A   Clear
2:55 AM 41.0 °F 33.5 °F 26.6 °F 57% 29.87 in 10.0 mi SW 13.8 mph - N/A   Clear
3:15 AM 41.0 °F 33.9 °F 26.6 °F 57% 29.87 in 10.0 mi SW 12.7 mph - N/A   Clear
3:35 AM 41.0 °F 33.1 °F 26.6 °F 57% 29.86 in 10.0 mi SW 15.0 mph - N/A   Clear
3:55 AM 41.0 °F 32.8 °F 28.4 °F 61% 29.85 in 10.0 mi SW 16.1 mph 20.7 mph N/A   Clear
4:15 AM 42.8 °F 34.8 °F 28.4 °F 57% 29.84 in 10.0 mi SW 17.3 mph - N/A   Clear
4:35 AM 42.8 °F 35.1 °F 28.4 °F 57% 29.84 in 10.0 mi SW 16.1 mph 20.7 mph N/A   Clear
4:55 AM 42.8 °F 35.1 °F 30.2 °F 61% 29.83 in 10.0 mi SW 16.1 mph 23.0 mph N/A   Clear
5:15 AM 41.0 °F 32.8 °F 30.2 °F 65% 29.83 in 10.0 mi SW 16.1 mph - N/A   Clear
5:35 AM 41.0 °F 33.1 °F 30.2 °F 65% 29.83 in 10.0 mi SW 15.0 mph - N/A   Clear
5:55 AM 41.0 °F 33.1 °F 30.2 °F 65% 29.81 in 10.0 mi SW 15.0 mph - N/A   Clear
6:15 AM 41.0 °F 35.2 °F 28.4 °F 61% 29.81 in 10.0 mi SW 9.2 mph - N/A   Clear
6:35 AM 41.0 °F 34.3 °F 30.2 °F 65% 29.81 in 10.0 mi SW 11.5 mph - N/A   Clear
6:55 AM 41.0 °F 34.3 °F 28.4 °F 61% 29.81 in 10.0 mi SW 11.5 mph - N/A   Clear
7:15 AM 41.0 °F 35.2 °F 28.4 °F 61% 29.83 in 10.0 mi SW 9.2 mph - N/A   Clear
7:35 AM 41.0 °F 35.2 °F 28.4 °F 61% 29.84 in 10.0 mi WSW 9.2 mph - N/A   Clear
7:55 AM 39.2 °F 33.0 °F 28.4 °F 65% 29.83 in 10.0 mi WSW 9.2 mph - N/A   Clear
8:15 AM 41.0 °F 35.2 °F 28.4 °F 61% 29.84 in 10.0 mi West 9.2 mph - N/A   Clear
8:35 AM 42.8 °F 35.8 °F 28.4 °F 57% 29.84 in 10.0 mi West 13.8 mph - N/A   Clear
8:55 AM 44.6 °F 38.1 °F 28.4 °F 53% 29.84 in 10.0 mi West 13.8 mph - N/A   Clear
9:15 AM 50.0 °F - 30.2 °F 47% 29.85 in 10.0 mi WNW 16.1 mph - N/A   Clear
9:35 AM 50.0 °F - 28.4 °F 43% 29.86 in 10.0 mi WNW 17.3 mph 25.3 mph N/A   Clear
9:55 AM 50.0 °F - 26.6 °F 40% 29.87 in 10.0 mi WNW 19.6 mph - N/A   Clear
10:15 AM 51.8 °F - 28.4 °F 41% 29.88 in 10.0 mi NW 18.4 mph 26.5 mph N/A   Clear
10:35 AM 53.6 °F - 28.4 °F 38% 29.88 in 10.0 mi NNW 17.3 mph - N/A   Clear
10:55 AM 55.4 °F - 26.6 °F 33% 29.90 in 10.0 mi North 23.0 mph 28.8 mph N/A   Clear
11:15 AM 57.2 °F - 26.6 °F 31% 29.90 in 10.0 mi North 20.7 mph 27.6 mph N/A   Clear
11:35 AM 57.2 °F - 26.6 °F 31% 29.91 in 10.0 mi North 23.0 mph 31.1 mph N/A   Clear
11:55 AM 59.0 °F - 26.6 °F 29% 29.91 in 10.0 mi North 25.3 mph 31.1 mph N/A   Clear
12:15 PM 59.0 °F - 28.4 °F 31% 29.91 in 10.0 mi North 20.7 mph 31.1 mph N/A   Clear
12:35 PM 59.0 °F - 28.4 °F 31% 29.90 in 10.0 mi NNE 17.3 mph 28.8 mph N/A   Clear
1:15 PM 59.0 °F - 24.8 °F 27% 29.89 in 10.0 mi NNE 17.3 mph 28.8 mph N/A   Clear
1:35 PM 59.0 °F - 24.8 °F 27% 29.89 in 10.0 mi North 16.1 mph 29.9 mph N/A   Clear
1:55 PM 60.8 °F - 26.6 °F 27% 29.90 in 10.0 mi North 18.4 mph 27.6 mph N/A   Clear
2:35 PM 60.8 °F - 28.4 °F 29% 29.92 in 10.0 mi North 17.3 mph 25.3 mph N/A   Clear
2:55 PM 59.0 °F - 28.4 °F 31% 29.94 in 10.0 mi NNE 19.6 mph 33.4 mph N/A   Clear
3:15 PM 59.0 °F - 28.4 °F 31% 29.95 in 10.0 mi North 21.9 mph 28.8 mph N/A   Clear
3:35 PM 59.0 °F - 28.4 °F 31% 29.97 in 10.0 mi North 26.5 mph 31.1 mph N/A   Clear
3:55 PM 55.4 °F - 26.6 °F 33% 30.00 in 10.0 mi North 25.3 mph 33.4 mph N/A   Clear
4:15 PM 55.4 °F - 28.4 °F 36% 30.01 in 10.0 mi NNE 19.6 mph 31.1 mph N/A   Clear
4:35 PM 53.6 °F - 28.4 °F 38% 30.03 in 10.0 mi North 20.7 mph 29.9 mph N/A   Clear
4:55 PM 53.6 °F - 28.4 °F 38% 30.04 in 10.0 mi NNE 24.2 mph 34.5 mph N/A   Clear
5:15 PM 51.8 °F - 26.6 °F 38% 30.06 in 10.0 mi NNE 18.4 mph 34.5 mph N/A   Clear
5:35 PM 50.0 °F - 26.6 °F 40% 30.07 in 10.0 mi NNE 19.6 mph 29.9 mph N/A   Clear
5:55 PM 50.0 °F - 26.6 °F 40% 30.09 in 10.0 mi NNE 21.9 mph - N/A   Clear
6:15 PM 50.0 °F - 28.4 °F 43% 30.10 in 10.0 mi NNE 16.1 mph 21.9 mph N/A   Scattered Clouds
6:35 PM 50.0 °F - 28.4 °F 43% 30.12 in 10.0 mi NNE 19.6 mph 26.5 mph N/A   Scattered Clouds
6:55 PM 46.4 °F 40.1 °F 28.4 °F 50% 30.13 in 10.0 mi NNE 15.0 mph 24.2 mph N/A   Scattered Clouds
7:15 PM 44.6 °F 37.4 °F 26.6 °F 49% 30.16 in 10.0 mi NE 16.1 mph 23.0 mph N/A   Clear
7:35 PM 42.8 °F 35.4 °F 26.6 °F 53% 30.17 in 10.0 mi NNE 15.0 mph - N/A   Clear
8:35 PM 41.0 °F 33.9 °F 26.6 °F 57% 30.20 in 10.0 mi NE 12.7 mph - N/A   Clear
9:15 PM 41.0 °F 34.3 °F 26.6 °F 57% 30.22 in 10.0 mi NE 11.5 mph - N/A   Scattered Clouds
9:35 PM 39.2 °F 30.8 °F 24.8 °F 56% 30.22 in 10.0 mi NE 15.0 mph 19.6 mph N/A   Scattered Clouds
9:55 PM 39.2 °F 31.6 °F 23.0 °F 52% 30.23 in 10.0 mi ENE 12.7 mph - N/A   Clear
10:15 PM 39.2 °F 32.5 °F 23.0 °F 52% 30.24 in 10.0 mi ENE 10.4 mph - N/A   Clear
10:35 PM 39.2 °F 32.0 °F 24.8 °F 56% 30.25 in 10.0 mi NE 11.5 mph - N/A   Clear
10:55 PM 39.2 °F 31.2 °F 23.0 °F 52% 30.26 in 10.0 mi NE 13.8 mph - N/A   Clear
11:15 PM 37.4 °F 28.9 °F 23.0 °F 56% 30.27 in 10.0 mi NE 13.8 mph - N/A   Clear
11:35 PM 35.6 °F 24.8 °F 23.0 °F 60% 30.27 in 10.0 mi NE 19.6 mph 23.0 mph N/A   Clear
11:55 PM 37.4 °F 27.2 °F 23.0 °F 56% 30.28 in 10.0 mi NE 19.6 mph - N/A   Clear